Location: Albany
(35.0170°S, 117.8920°E)
Time: 17:35:07
(UTC+08:00)

Transit 2A - Pass Details

Date: 31 January 2021
Orbit: 601 x 958 km, 66.7° (Epoch: 02 March)

Event Time Altitude Azimuth Distance (km) Brightness Sun altitude
Rises 01:05:52 0° 226° (SW) 3,616 9.8 -36.5°
Enters shadow 01:09:13 10° 244° (WSW) 2,706 8.9 -36.3°
Reaches altitude 10° 01:09:16 10° 244° (WSW) 2,692 - -36.3°
Maximum altitude 01:13:15 18° 284° (WNW) 2,195 - -36.1°
Drops below altitude 10° 01:17:14 10° 323° (NW) 2,682 - -35.9°
Sets 01:20:38 0° 341° (NNW) 3,597 - -35.7°
